Location: Newark
(43.4306°N, 0.3089°E)
Time: 22:29:36
(UTC+00:00)

Altair - Visible Passes

Search period start: 19 August 2019 00:00
Search period end: 29 August 2019 00:00
Orbit: 1501 x 1683 km, 47.2° (Epoch: 18 August)

Date Brightness Start Highest point End Pass type
(mag) Time Alt. Az. Time Alt. Az. Time Alt. Az.
19 Aug 8.4 02:31:31 24° S 02:35:56 34° SE 02:44:08 10° ENE visible
19 Aug 7.6 04:30:07 10° WSW 04:39:53 82° SSE 04:49:17 10° ENE visible
20 Aug 8.5 02:07:47 26° SSE 02:10:52 31° SE 02:18:51 10° ENE visible
20 Aug 7.6 04:05:48 13° SW 04:14:43 79° SSE 04:24:07 10° ENE visible
21 Aug 8.5 01:44:01 27° SSE 01:45:48 29° SE 01:53:33 10° ENE visible
21 Aug 7.6 03:42:02 19° SW 03:49:33 75° SSE 03:58:57 10° ENE visible
22 Aug 8.6 01:20:13 26° SE 01:20:43 26° SE 01:28:13 10° ENE visible
22 Aug 7.6 03:18:13 26° SW 03:24:24 71° SSE 03:33:48 10° ENE visible
23 Aug 8.7 00:56:22 24° ESE 00:56:22 24° ESE 01:02:50 10° E visible
23 Aug 7.6 02:54:23 34° SW 02:59:14 68° SSE 03:08:39 10° ENE visible
24 Aug 8.9 00:32:30 21° ESE 00:32:30 21° ESE 00:37:25 10° E visible
24 Aug 7.6 02:30:30 42° SSW 02:34:05 64° SE 02:43:28 10° ENE visible
24 Aug 7.7 04:29:06 10° W 04:38:53 75° NNW 04:48:19 10° ENE visible
25 Aug 9.1 00:08:36 17° ESE 00:08:36 17° ESE 00:11:56 10° E visible
25 Aug 7.6 02:06:36 49° S 02:08:56 60° SE 02:18:18 10° ENE visible
25 Aug 7.7 04:04:37 13° W 04:13:41 77° NNW 04:23:08 10° ENE visible
25 Aug 9.3 23:44:40 13° E 23:44:40 13° E 23:46:23 10° E visible
26 Aug 7.6 01:42:40 54° SSE 01:43:48 57° SE 01:53:07 10° ENE visible
26 Aug 7.6 03:40:40 19° W 03:48:27 79° NNW 03:57:58 10° ENE visible
26 Aug 9.4 23:20:43 10° E 23:20:43 10° E 23:20:43 10° E visible
27 Aug 7.7 01:18:43 53° SE 01:18:43 53° SE 01:27:55 10° ENE visible
27 Aug 7.6 03:16:43 25° WSW 03:23:14 81° NNW 03:32:47 10° ENE visible
28 Aug 7.9 00:54:44 48° ESE 00:54:44 48° ESE 01:02:43 10° ENE visible
28 Aug 7.5 02:52:44 33° WSW 02:58:01 83° NNW 03:07:36 10° ENE visible
